TimeCST,TemperatureF,Dew PointF,Humidity,Sea Level PressureIn,VisibilityMPH,Wind Direction,Wind SpeedMPH,Gust SpeedMPH,PrecipitationIn,Events,Conditions,WindDirDegrees,DateUTC
12:14 AM,24.8,21.2,86,29.51,10.0,South,10.4,-,N/A,,Scattered Clouds,190,2014-01-12 06:14:00
12:34 AM,26.6,23.0,86,29.48,10.0,South,10.4,-,N/A,,Scattered Clouds,190,2014-01-12 06:34:00
12:53 AM,26.6,23.0,86,29.46,10.0,South,11.5,17.3,N/A,,Scattered Clouds,190,2014-01-12 06:53:00
1:14 AM,28.4,24.8,86,29.45,10.0,South,12.7,-,N/A,,Clear,190,2014-01-12 07:14:00
1:34 AM,30.2,24.8,80,29.43,10.0,South,12.7,-,N/A,,Clear,190,2014-01-12 07:34:00
1:54 AM,30.2,24.8,80,29.42,10.0,South,12.7,-,N/A,,Scattered Clouds,180,2014-01-12 07:54:00
2:14 AM,30.2,24.8,80,29.40,10.0,South,11.5,19.6,N/A,,Mostly Cloudy,190,2014-01-12 08:14:00
2:34 AM,30.2,24.8,80,29.39,10.0,South,12.7,16.1,N/A,,Scattered Clouds,190,2014-01-12 08:34:00
2:53 AM,32.0,24.8,75,29.38,10.0,South,11.5,-,N/A,,Mostly Cloudy,190,2014-01-12 08:53:00
3:14 AM,33.8,26.6,75,29.36,10.0,SSW,13.8,18.4,N/A,,Scattered Clouds,200,2014-01-12 09:14:00
3:34 AM,33.8,26.6,75,29.35,10.0,SSW,10.4,-,N/A,,Scattered Clouds,200,2014-01-12 09:34:00
3:54 AM,33.8,26.6,75,29.34,10.0,South,8.1,-,N/A,,Mostly Cloudy,190,2014-01-12 09:54:00
4:14 AM,33.8,28.4,81,29.33,10.0,South,6.9,-,N/A,,Mostly Cloudy,190,2014-01-12 10:14:00
4:34 AM,33.8,28.4,81,29.32,10.0,SSW,6.9,-,N/A,,Mostly Cloudy,210,2014-01-12 10:34:00
4:54 AM,35.6,28.4,75,29.30,10.0,SSW,8.1,-,N/A,,Overcast,210,2014-01-12 10:54:00
5:14 AM,35.6,28.4,75,29.31,10.0,SW,9.2,-,N/A,,Overcast,220,2014-01-12 11:14:00
5:34 AM,35.6,28.4,75,29.33,10.0,WSW,5.8,-,N/A,,Scattered Clouds,240,2014-01-12 11:34:00
5:54 AM,33.8,28.4,81,29.32,10.0,SW,6.9,-,N/A,,Clear,230,2014-01-12 11:54:00
6:14 AM,33.8,26.6,75,29.32,10.0,SSW,4.6,-,N/A,,Clear,210,2014-01-12 12:14:00
6:34 AM,33.8,26.6,75,29.30,10.0,South,3.5,-,N/A,,Clear,190,2014-01-12 12:34:00
6:54 AM,30.2,26.6,86,29.29,10.0,SSW,4.6,-,N/A,,Clear,200,2014-01-12 12:54:00
7:14 AM,32.0,26.6,80,29.30,10.0,SW,5.8,-,N/A,,Clear,230,2014-01-12 13:14:00
7:34 AM,32.0,26.6,80,29.30,10.0,SW,6.9,-,N/A,,Clear,220,2014-01-12 13:34:00
7:54 AM,32.0,28.4,87,29.30,10.0,West,6.9,-,N/A,,Mostly Cloudy,260,2014-01-12 13:54:00
8:14 AM,33.8,28.4,81,29.34,10.0,WNW,8.1,-,N/A,,Overcast,300,2014-01-12 14:14:00
8:34 AM,33.8,28.4,81,29.35,10.0,WNW,6.9,-,N/A,,Mostly Cloudy,300,2014-01-12 14:34:00
8:54 AM,35.6,28.4,75,29.35,10.0,WNW,6.9,-,N/A,,Overcast,300,2014-01-12 14:54:00
9:14 AM,35.6,30.2,81,29.36,10.0,WNW,8.1,-,N/A,,Scattered Clouds,300,2014-01-12 15:14:00
9:34 AM,37.4,30.2,75,29.37,10.0,West,6.9,-,N/A,,Clear,280,2014-01-12 15:34:00
9:54 AM,37.4,30.2,75,29.38,10.0,West,8.1,-,N/A,,Clear,280,2014-01-12 15:54:00
10:14 AM,37.4,30.2,75,29.38,10.0,West,6.9,-,N/A,,Clear,280,2014-01-12 16:14:00
10:34 AM,37.4,30.2,75,29.39,10.0,WNW,6.9,-,N/A,,Clear,290,2014-01-12 16:34:00
10:54 AM,39.2,32.0,75,29.39,10.0,West,4.6,-,N/A,,Clear,280,2014-01-12 16:54:00
11:14 AM,39.2,32.0,75,29.39,10.0,WNW,4.6,-,N/A,,Clear,290,2014-01-12 17:14:00
11:34 AM,39.2,32.0,75,29.38,10.0,WNW,6.9,-,N/A,,Clear,290,2014-01-12 17:34:00
11:54 AM,41.0,33.8,76,29.38,10.0,WNW,6.9,-,N/A,,Clear,300,2014-01-12 17:54:00
12:14 PM,41.0,32.0,70,29.38,10.0,WNW,8.1,-,N/A,,Clear,290,2014-01-12 18:14:00
12:34 PM,41.0,33.8,76,29.38,10.0,WNW,6.9,-,N/A,,Clear,300,2014-01-12 18:34:00
12:54 PM,41.0,33.8,76,29.38,10.0,West,4.6,-,N/A,,Clear,270,2014-01-12 18:54:00
1:13 PM,42.8,32.0,66,29.38,10.0,WNW,6.9,-,N/A,,Clear,290,2014-01-12 19:13:00
1:34 PM,42.8,32.0,66,29.38,10.0,WNW,5.8,-,N/A,,Clear,300,2014-01-12 19:34:00
1:54 PM,42.8,32.0,66,29.38,10.0,WNW,4.6,-,N/A,,Clear,290,2014-01-12 19:54:00
2:14 PM,42.8,33.8,70,29.39,10.0,WNW,6.9,-,N/A,,Clear,300,2014-01-12 20:14:00
2:34 PM,42.8,32.0,66,29.40,10.0,West,5.8,-,N/A,,Clear,270,2014-01-12 20:34:00
2:54 PM,41.0,30.2,65,29.40,10.0,WNW,4.6,-,N/A,,Clear,290,2014-01-12 20:54:00
3:14 PM,41.0,30.2,65,29.40,10.0,WNW,4.6,-,N/A,,Clear,290,2014-01-12 21:14:00
3:34 PM,39.2,30.2,70,29.44,10.0,WSW,8.1,-,N/A,,Clear,250,2014-01-12 21:34:00
3:54 PM,39.2,30.2,70,29.45,10.0,WSW,8.1,-,N/A,,Clear,250,2014-01-12 21:54:00
4:14 PM,39.2,30.2,70,29.46,10.0,WSW,10.4,-,N/A,,Clear,250,2014-01-12 22:14:00
4:34 PM,37.4,30.2,75,29.47,10.0,WSW,10.4,-,N/A,,Clear,250,2014-01-12 22:34:00
4:54 PM,37.4,30.2,75,29.47,10.0,West,8.1,-,N/A,,Clear,260,2014-01-12 22:54:00
5:14 PM,37.4,30.2,75,29.48,10.0,West,8.1,-,N/A,,Clear,260,2014-01-12 23:14:00
5:34 PM,37.4,30.2,75,29.49,10.0,WNW,6.9,-,N/A,,Clear,290,2014-01-12 23:34:00
5:54 PM,37.4,30.2,75,29.49,10.0,West,5.8,-,N/A,,Clear,270,2014-01-12 23:54:00
6:14 PM,37.4,30.2,75,29.50,10.0,West,4.6,-,N/A,,Clear,270,2014-01-13 00:14:00
6:33 PM,37.4,30.2,75,29.50,10.0,West,4.6,-,N/A,,Clear,280,2014-01-13 00:33:00
6:54 PM,37.4,30.2,75,29.50,10.0,WNW,6.9,-,N/A,,Clear,300,2014-01-13 00:54:00
7:14 PM,35.6,30.2,81,29.51,10.0,NW,5.8,-,N/A,,Clear,310,2014-01-13 01:14:00
7:33 PM,35.6,30.2,81,29.51,10.0,NW,4.6,-,N/A,,Clear,310,2014-01-13 01:33:00
7:54 PM,35.6,30.2,81,29.52,10.0,WNW,6.9,-,N/A,,Clear,300,2014-01-13 01:54:00
8:14 PM,35.6,30.2,81,29.52,10.0,WNW,6.9,-,N/A,,Clear,290,2014-01-13 02:14:00
8:34 PM,35.6,30.2,81,29.53,10.0,West,6.9,-,N/A,,Clear,270,2014-01-13 02:34:00
8:54 PM,35.6,30.2,81,29.53,10.0,West,6.9,-,N/A,,Clear,260,2014-01-13 02:54:00
9:14 PM,33.8,30.2,87,29.53,10.0,West,8.1,-,N/A,,Clear,260,2014-01-13 03:14:00
9:34 PM,33.8,30.2,87,29.52,10.0,West,10.4,-,N/A,,Clear,270,2014-01-13 03:34:00
9:54 PM,33.8,30.2,87,29.53,10.0,West,5.8,-,N/A,,Clear,270,2014-01-13 03:54:00
10:14 PM,33.8,30.2,87,29.54,10.0,WNW,5.8,-,N/A,,Clear,290,2014-01-13 04:14:00
10:34 PM,33.8,28.4,81,29.55,10.0,WNW,5.8,-,N/A,,Clear,300,2014-01-13 04:34:00
10:54 PM,33.8,30.2,87,29.55,10.0,NW,5.8,-,N/A,,Clear,310,2014-01-13 04:54:00
11:14 PM,33.8,30.2,87,29.55,10.0,WNW,8.1,-,N/A,,Clear,300,2014-01-13 05:14:00
11:34 PM,33.8,28.4,81,29.55,10.0,NW,5.8,-,N/A,,Clear,320,2014-01-13 05:34:00
11:54 PM,33.8,30.2,87,29.55,10.0,NW,9.2,-,N/A,,Clear,320,2014-01-13 05:54:00